Weather Roundup
Issued by NWS Springfield, MO

Home | Current Version | Previous Version | Text Only | Print | Product List | Glossary On
Versions: 1 2 3 4 5 6 7 8 9 10 11 12 13 14 15 16 17 18 19 20 21 22 23 24 25 26 27 28 29 30 31 32 33 34 35 36 37 38 39 40 41 42 43 44 45 46 47 48 49 50
000
NZUS99 KSGF 081957
HRRSGF

HOURLY WEATHER
NATIONAL WEATHER SERVICE SPRINGFIELD MO
200 PM CST THU DEC 08 2016

......SGF CWA......

CITY           SKY/WX    TMP DP  RH WIND       PRES   REMARKS
SPRINGFIELD    SUNNY     29  12  49 W12       30.55S WCI  19
JOPLIN         SUNNY     28  13  53 NW9G17    30.62F WCI  19
ROLLA          SUNNY     28  13  53 W13       30.48F WCI  17
BRANSON        PTSUNNY   28   9  43 NW12G18   30.55S WCI  18

......SURROUNDING SGF CWA......

CITY           SKY/WX    TMP DP  RH WIND       PRES   REMARKS
CHANUTE        SUNNY     28  15  58 NW12      30.63F WCI  18
PARSONS        SUNNY     30  13  49 NW13      30.65F WCI  20
COFFEYVILLE    SUNNY     30  12  47 NW8       30.66F WCI  22
EMPORIA        SUNNY     26  13  57 NW15G21   30.63F WCI  14
HARRISON AR    SUNNY     31  10  41 NW12      30.53S WCI  22

......KANSAS AND MISSOURI......

CITY           SKY/WX    TMP DP  RH WIND       PRES   REMARKS
KANSAS CTY INT MOSUNNY   25  10  53 W10G20    30.59F WCI  15
SEDALIA        MOSUNNY   26  13  57 NW14G22   30.57S WCI  14
ST JOSEPH      SUNNY     25   9  50 NW14      30.61S WCI  13
ST LOUIS       MOSUNNY   30  11  45 W18G26    30.48F WCI  18
WICHITA        MOSUNNY   29   6  38 N14       30.64F WCI  18
TOPEKA         SUNNY     27  12  53 W13       30.64S WCI  16
OLATHE         SUNNY     24  10  55 NW14      30.60S WCI  12

......TENNESSEE......

CITY           SKY/WX    TMP DP  RH WIND       PRES   REMARKS
MEMPHIS        NOT AVBL
NASHVILLE      PTSUNNY   39  11  31 NW16      30.40S WCI  30

......ARKANSAS.......

CITY           SKY/WX    TMP DP  RH WIND       PRES   REMARKS
FAYETTEVILLE   SUNNY     31  12  45 N13       30.57F WCI  21
FT SMITH       SUNNY     38   9  30 NW13G20   30.60F WCI  30
LITTLE ROCK    CLOUDY    39  13  34 NW13      30.54S WCI  31

......OKLAHOMA.......

CITY           SKY/WX    TMP DP  RH WIND       PRES   REMARKS
TULSA          MOSUNNY   35   8  32 N12       30.65F WCI  27
PONCA CITY     SUNNY     32   5  32 NW16      30.67F WCI  21
MCALESTER      PTSUNNY   37   9  31 N14G21    30.63F WCI  28
OKLAHOMA CITY  MOSUNNY   32   6  33 N16       30.65F WCI  21

......IOWA............

CITY           SKY/WX    TMP DP  RH WIND       PRES   REMARKS
DES MOINES     NOT AVBL
QUAD CITIES    CLOUDY    22  12  65 W22G28    30.42R WCI   6

......ILLINOIS........

CITY           SKY/WX    TMP DP  RH WIND       PRES   REMARKS
QUINCY         NOT AVBL
CHICAGO        FLURRIES  21  13  71 W14G22    30.30R WCI   8



USA.gov is the U.S. government's official web portal to all federal, state and local government web resources and services.